Flag for Congo Weather past 2 weeks in Brazzaville, Congo

Now
75 °F

Light rain. Passing clouds.


Feels Like: 75 °F
Forecast: 75 / 84 °F
Wind: 5 mph from Southeast

Location: Brazzaville / Maya-Maya


UV Index: 3 (Moderate)

Visibility: 5 mi


Pressure: 29.92 "Hg

Humidity: 89%

Dew point: 72 °F

Location of BrazzavilleLocation

Historic Weather in Brazzaville

°F

Brazzaville temperature yesterday

Maximum temperature yesterday: 91 °F (at 4:00 PM)
Minimum temperature yesterday: 73 °F (at 5:00 AM)
Average temperature yesterday: 80 °F

Past Weeks' High & Low Weather Summary

 TemperatureHumidityPressure
High95 °F (Apr 18, 3:00 PM)100% (Apr 14, 6:00 AM)30.01 "Hg (Apr 14, 6:00 AM)
Low72 °F (Apr 14, 6:00 AM)44% (Apr 18, 2:00 PM)29.71 "Hg (Apr 17, 4:00 PM)
Average80 °F77%29.87 "Hg
* Reported Apr 9 1:00 PM — Apr 23 11:00 PM, Brazzaville, Weather by CustomWeather, © 2014

Note: Actual official high and low records may vary slightly from our data, if they occured in-between our weather recording intervals... More about our weather records

Advertising

Historic Weather Conditions — Data for Previous 24 hours

 ConditionsComfort  
Time TempWeatherWind HumidityBarometerVisibility
11:00 PM
Apr 23
75 °FLight rain. Passing clouds.5 mph89%29.92 "Hg5 mi
10:00 PM75 °FThunderstorms. Passing clouds.2 mph89%29.92 "Hg5 mi
9:00 PM77 °FThunderstorms. Passing clouds.No wind79%29.92 "Hg5 mi
8:00 PM77 °FThunderstorms. Passing clouds.9 mph79%29.89 "Hg5 mi
7:00 PM81 °FThunderstorms. Passing clouds.3 mph74%29.86 "Hg5 mi
6:00 PM84 °FThunderstorms. Passing clouds.6 mph66%29.83 "Hg5 mi
5:00 PM86 °FScattered clouds.7 mph66%29.80 "Hg5 mi
4:00 PM91 °FScattered clouds.5 mph56%29.77 "HgN/A
3:00 PM90 °FScattered clouds.7 mph55%29.77 "Hg6 mi
2:00 PM88 °FScattered clouds.3 mph59%29.80 "Hg6 mi
1:00 PM88 °FScattered clouds.7 mph59%29.86 "Hg6 mi
12:00 PM86 °FScattered clouds.5 mph62%29.89 "Hg6 mi
11:00 AM84 °FScattered clouds.2 mph66%29.92 "Hg6 mi
10:00 AM82 °FScattered clouds.2 mph74%29.95 "Hg6 mi
9:00 AM79 °FScattered clouds.1 mph79%29.95 "Hg6 mi
8:00 AM77 °FPartly sunny.No wind83%29.95 "Hg6 mi
7:00 AM75 °FPassing clouds.No wind89%29.92 "Hg6 mi
6:00 AM73 °FPassing clouds.No wind89%29.89 "HgN/A
5:00 AM73 °FThunderstorms. Passing clouds.2 mph89%29.89 "HgN/A
4:00 AM75 °FThunderstorms. Passing clouds.5 mph83%29.89 "HgN/A
3:00 AM75 °FThunderstorms. Passing clouds.3 mph89%29.86 "HgN/A
2:00 AM75 °FThunderstorms. Passing clouds.No wind83%29.86 "HgN/A
1:00 AM77 °FThunderstorms. Passing clouds.No wind83%29.89 "Hg4 mi
12:00 AM79 °FThunderstorms. Passing clouds.5 mph79%29.89 "Hg4 mi
Weather by CustomWeather, © 2014

See weather overview